www.pogodaiklimat.ru

Погода и климат >> Архив погоды >> Россия >> Краснодарский край >> Новороссийск


АРХИВ ПОГОДЫ в Новороссийске

Время (UTC), дата Ветер
(напр.,м/с)
 
Видим.   Явления Облачность Т
(С)
Тd
(С)
f
(%)
Тe
(С)
Тes
(С)
Комфортность P
(гПа)
Po
(гПа)
Тmin
(С)
Tmax
(С)
R
(мм)
R24
(мм)
S
(см)
18 18.05 СВ 1 10 км {ливн. осадки} 1/0
[Ac trans]
+17.7 +14.1 79 +19 +19 тепло 1015.6 1014.3
21 18.05 штиль 0 10 км 8/0
[Ci fib]
+16.5 +12.6 78 +16 +16 тепло 1016.0 1014.7
00 19.05 штиль 0 10 км 8/4 600 м
[Sc Ci fib]
+15.6 +12.9 84 +15 +15 тепло 1016.2 1014.9
03 19.05 штиль 0 10 км 4/4 300 м
[St]
+15.2 +13.0 87 +15 +15 по сезону 1016.1 1014.8 +15.0
06 19.05 ЮЗ 1 20 км 6/3 600 м
[Cu hum Ci fib]
+19.5 +14.9 75 +22 +30 комфорт 1016.2 1014.9
09 19.05 ЮЗ 2 20 км 8/0
[Ci fib]
+21.9 +15.8 68 +26 +41 душно 1016.2 1014.9
12 19.05 ЮЗ 2 20 км 8/0
[Ci fib]
+21.8 +15.5 67 +25 +37 комфорт 1015.4 1014.1
15 19.05 ЮЗ 1 20 км 9/0
[Ac trans Ci fib]
+21.9 +13.7 60 +25 +27 комфорт 1014.3 1013.0 +22.9
18 19.05 В 4 10 км 6/0
[Ac trans]
+23.3 +10.7 45 +25 +25 комфорт 1013.8 1012.6
21 19.05 В 1 10 км 3/0
[Ci fib]
+21.7 +9.2 45 +23 +23 комфорт 1013.8 1012.5
00 20.05 В 3 10 км ясно +21.4 +13.3 60 +24 +24 комфорт 1013.0 1011.7
03 20.05 ЮВ 1 20 км 4/0
[Ac trans]
+22.3 +9.9 45 +24 +25 комфорт 1012.8 1011.5 +19.3
06 20.05 ЮЗ 1 20 км 6/3 600 м
[Cu hum Ac trans Ci fib]
+22.2 +14.3 61 +25 +32 комфорт 1013.5 1012.2
09 20.05 ЮЗ 2 20 км 3/0
[Ac trans]
+23.5 +15.8 62 +27 +42 душно 1013.9 1012.7
12 20.05 Ю 2 20 км 5/5 600 м
[Cu Sc]
+22.7 +17.5 72 +28 +34 душно 1014.0 1012.7
15 20.05 ЮЗ 2 20 км 5/3 600 м
[Sc Cc]
+21.7 +15.8 69 +25 +27 комфорт 1013.2 1011.9 +24.2
18 20.05 В 1 10 км 8/3 600 м
[Sc Ac trans]
+20.1 +16.5 80 +24 +24 комфорт 1014.0 1012.7
21 20.05 ЮЗ 1 10 км 8/5 600 м
[Sc Ac trans]
+20.8 +15.4 71 +25 +25 комфорт 1013.8 1012.5
00 21.05 штиль 0 10 км 8/8 600 м
[Sc]
+19.2 +13.0 67 +20 +20 тепло 1013.5 1012.2
03 21.05 В 1 20 км 6/3 600 м
[Sc Ac trans]
+18.9 +13.4 70 +21 +21 комфорт 1015.1 1013.8 +18.6
06 21.05 ЮВ 1 20 км ясно +22.4 +13.4 57 +25 +37 комфорт 1015.9 1014.7
09 21.05 ЮЗ 2 20 км 4/4 600 м
[Cu med, cong]
+23.7 +14.5 56 +26 +37 жарко 1016.7 1015.5
12 21.05 ЮЗ 2 20 км 5/5 600 м
[Cu med, cong]
+24.8 +13.6 50 +27 +34 жарко 1016.9 1015.6
15 21.05 ЮЗ 1 20 км 6/4 600 м
[Cu Sc Ac As]
+23.5 +14.7 58 +26 +28 жарко 1017.0 1015.7 +25.2
18 21.05 ЮВ 2 10 км 4/3 600 м
[Sc Ac trans]
+21.7 +13.5 60 +24 +24 комфорт 1018.2 1016.9
21 21.05 В 1 10 км 3/3 600 м
[Sc]
+20.1 +12.2 60 +23 +23 комфорт 1018.1 1016.8
00 22.05 В 1 10 км ясно +18.2 +13.4 74 +20 +20 тепло 1018.4 1017.1
03 22.05 штиль 0 20 км 8/0
[Ci fib]
+18.0 +14.3 79 +18 +19 тепло 1018.4 1017.1 +17.5
06 22.05 штиль 0 20 км 9/0
[Ci]
+22.7 +13.1 55 +26 +37 жарко 1019.1 1017.8
09 22.05 ЮВ 6 20 км 10/1 600 м
[Cu Sc Ci]
+26.4 +14.2 47 +29 +34 жарко 1018.7 1017.4
12 22.05 СВ 5
{10}
20 км 10/1 1000 м
[Cu Sc Ci fib]
+28.1 +12.8 39 +30 +35 жарко 1017.7 1016.5
15 22.05 СВ 5
{11}
20 км 6/1 1000 м
[Sc Ci fib]
+28.2 +14.4 43 +30 +32 жарко 1016.8 1015.5 +29.1
18 22.05 СВ 8-12
{13}
10 км 5/0
[Ac trans]
+24.8 +15.1 55 +28 +28 жарко 1016.6 1015.3
21 22.05 СВ 6-12
{14}
10 км 4/0
[Cc]
+23.8 +14.5 56 +26 +26 жарко 1016.5 1015.2
00 23.05 СВ 7-12
{13}
10 км 5/0
[Ac trans]
+23.7 +14.7 57 +26 +26 жарко 1016.1 1014.8
03 23.05 В 2
{12}
20 км в посл. час ливневой дождь {гроза} 9/8 1000 м
[Cb calv Ac trans Cc]
+20.6 +17.2 81 +25 +25 комфорт 1017.3 1016.0 +20.6 1
06 23.05 штиль 0
{11}
20 км {гроза, ливн. осадки} 8/6 600 м
[Cb calv Ac trans]
+24.6 +15.7 58 +28 +31 душно 1017.3 1016.0 +20.6
09 23.05 ЮЗ 1 20 км 10/10 600 м
[Cb calv]
+22.2 +18.7 81 +28 +28 душно 1018.1 1016.8
12 23.05 ЮЗ 2 20 км 8/3 600 м
[Cu hum Ci fib]
+23.7 +18.6 73 +28 +36 душно 1017.3 1016.0
15 23.05 ЮЗ 2 20 км 4/0
[Ci fib]
+22.6 +18.2 76 +28 +30 душно 1016.4 1015.1 +25.8 1
18 23.05 В 1 10 км 3/0
[Ci fib]
+20.7 +17.7 83 +26 +26 душно 1016.4 1015.1
21 23.05 Ю 1 10 км 9/9 600 м
[Sc]
+21.3 +16.9 76 +25 +25 комфорт 1015.0 1013.7
00 24.05 штиль 0
{11}
10 км 10/10 600 м
[Sc]
+21.9 +17.6 77 +26 +26 душно 1014.5 1013.2
03 24.05 ЮЗ 1 10 км 10/10 600 м
[Sc]
+20.8 +18.2 85 +26 +26 душно 1015.4 1014.1 +20.4
06 24.05 Ю 1 10 км в посл. час ливневой дождь 9/9 600 м
[Cb cap]
+21.6 +18.9 85 +26 +28 душно 1015.3 1014.0
09 24.05 ЮЗ 2 20 км 5/3 600 м
[Cu hum Ac trans Ci fib]
+24.3 +17.7 67 +28 +40 душно 1014.3 1013.0
12 24.05 ЮЗ 2 20 км 4/3 600 м
[Cu med, cong Cc]
+25.1 +15.9 57 +28 +38 жарко 1013.4 1012.1
15 24.05 ЮЗ 2 20 км 6/3 600 м
[Cu med, cong Ac trans Ci fib]
+23.3 +16.2 64 +28 +29 душно 1012.2 1010.9 +25.7 0.4
18 24.05 ЮВ 1 10 км 3/0
[Ac trans]
+22.7 +15.2 63 +27 +27 душно 1011.9 1010.7
21 24.05 В 5 10 км 3/0
[Ac trans]
+21.9 +14.6 63 +25 +25 комфорт 1010.8 1009.6
00 25.05 СЗ 1 10 км ясно +20.1 +14.5 70 +23 +23 комфорт 1010.2 1008.9
03 25.05 В 5 20 км ясно +19.5 +14.9 75 +21 +21 комфорт 1010.2 1008.9 +18.5
06 25.05 ЮЗ 2 20 км 1/0
[Ci fib]
+24.3 +13.3 50 +26 +36 жарко 1010.3 1009.0
09 25.05 СВ 5-12
{13}
20 км 4/0
[Ci fib]
+27.9 +13.3 41 +30 +39 жарко 1009.6 1008.4
12 25.05 В 4
{10}
20 км 5/3 600 м
[Cu med, cong Ac trans]
+29.5 +12.3 35 +31 +36 жарко 1009.3 1008.1

 

Местоположение метеостанции Новороссийск (Краснодарский край, Россия): широта 44.72 долгота 37.85 высота над уровнем моря 3 м.

В архиве по умолчанию представлена погода в Новороссийске за последнюю неделю. Архивные данные за месяц целиком и за предыдущие месяцы, начиная с января 2011 года, Вы можете получить, выбрав интересующий диапазон дат из раскрывающегося списка и нажав кнопку "Ввод!".


*Определитесь, кто Вы:
робот инопланетянин человек

Внимание! Время в таблицах - всемирное. Для получения местного времени необходимо прибавить поправку, которая в Новороссийске равна 3 ч.

Смотрите также архив погоды в соседних городах и на ближайших метеорологических станциях:

Погода в Геленджике (Краснодарский край, Россия) (25 км)
Погода в Крымске (Краснодарский край, Россия) (25 км)
Погода в Анапе (Краснодарский край, Россия) (48 км)
Погода в Славянске-на-Кубани (Краснодарский край, Россия) (66 км)
Погода в Темрюке (Краснодарский край, Россия) (76 км)
Погода в Джубге (Краснодарский край, Россия) (81 км)
Погода в Горячем Ключе (Краснодарский край, Россия) (99 км)
Погода в Краснодаре (Краснодарский край, Россия) (100 км)
Погода в Тамани (Краснодарский край, Россия) (105 км)
Погода в Туапсе (Краснодарский край, Россия) (119 км)

Пояснения к столбцам:

Ветер - указаны скорость ветра в м/с - средняя за 10 мин, порывы в срок и между сроками (в фигурных скобках) и направление, откуда дует ветер: С - северный, СВ - северо-восточный, В - восточный, ЮВ - юго-восточный, Ю - южный, ЮЗ - юго-западный, З - западный, СЗ - северо-западный.
Видимость - горизонтальная дальность видимости в метрах или километрах. При видимости от 1 до 10 км при отсутствии осадков обычно наблюдается дымка, при ухудшении видимости до 1 км и менее - туман. В сухую погоду видимость может ухудшаться дымом, пылью или мглою.
Явления - указаны атмосферные явления, наблюдавшиеся в срок или в последний час перед сроком; фигурными скобками обозначены явления, наблюдавшиеся между сроками (за 1-3 часа до срока); квадратными скобками обозначены град или гололедные отложения с указанием их диаметра в мм.
Облачность - указаны через наклонную черту общая и нижняя облачность в баллах и высота нижней границы облаков в метрах; квадратными скобками обозначены формы облаков: Ci - перистые, Cs - перисто-слоистые, Cc - перисто-кучевые, Ac - высококучевые, As - высокослоистые, Sc - слоисто-кучевые, Ns - слоисто-дождевые, Cu - кучевые, Cb - кучево-дождевые. Подробнее классификацию облаков см. в Атласе облаков (PDF).
T - Температура воздуха - температура, измеренная на высоте 2 м над землей.
Td - Температура точки росы - температура, при понижении до которой содержащийся в воздухе водяной пар достигнет насыщения.
f - Относительная влажность воздуха - влажноcть воздуха, измеренная на высоте 2 м над землей.
Te - Эффективная температура - температура, которую ощущает одетый по сезону человек в тени. Характеристика душности погоды. При расчете учитывается влияние влажности воздуха и скорости ветра на теплоощущения человека.
Tes - Эффективная температура на солнце - температура, которую ощущает человек, с поправкой на солнечный нагрев. Характеристика знойности погоды. Зависит от высоты солнца над горизонтом, облачности и скорости ветра. Ночью, в пасмурную погоду, а также при ветре 12 м/с и более поправка равна нулю.
P - Атмосферное давление - приведенное к уровню моря атмосферное давление.
Po - Атмосферное давление - измеренное на уровне метеостанции атмосферное давление.
Tmin - Минимальная температура - минимум температуры воздуха на высоте 2 м над землей.
Tmax - Максимальная температура - максимум температуры воздуха на высоте 2 м над землей.
R - Количество осадков - Количество выпавших осадков за период времени, мм. При наведении курсора мыши на число - период времени, за который выпало указанное количество осадков.
R24 - Количество осадков - Количество выпавших осадков за 24 часа, мм.
S - Снежный покров - Высота снежного покрова, см. При наведении курсора мыши на число - состояние снежного покрова и степень покрытия местности в баллах.